Change the Weather History Date:

Wednesday, September 4, 2013

  Actual Average Record
Temperature  
Mean Temperature 76 °F 64 °F  
Max Temperature 91 °F 79 °F 100 °F (1998)
Min Temperature 60 °F 49 °F 38 °F (2011)
Degree Days  
Heating Degree Days 0 4  
Month to date heating degree days 0 14  
Since 1 July heating degree days 12 66  
Cooling Degree Days 11 3  
Month to date cooling degree days 30 13  
Year to date cooling degree days 517 484  
Growing Degree Days 25 (Base 50)    
Moisture  
Dew Point 61 °F    
Average Humidity 65    
Maximum Humidity 93    
Minimum Humidity 37    
Precipitation  
Precipitation 0.00 in 0.04 in 0.05 in (1999)
Month to date precipitation 0.04 0.17  
Year to date precipitation 9.52 12.31  
Sea Level Pressure  
Sea Level Pressure 29.98 in    
Wind  
Wind Speed 10 mph (East)    
Max Wind Speed 18 mph    
Max Gust Speed 23 mph    
T = Trace of Precipitation, MM = Missing Value Source: NWS Daily Summary

Daily Weather History Graph

Daily Weather History Graph

Search for Another Location

Airport or City:

Trip Planner

Search our weather history database for the weather conditions in past years. The results will help you decide how hot, cold, wet, or windy it might be!

Date:

Astronomy

Sep. 04, 2013 Rise Set
Actual Time 6:19 AM MDT 7:25 PM MDT
Civil Twilight 5:49 AM MDT 7:56 PM MDT
Nautical Twilight 5:12 AM MDT 8:32 PM MDT
Astronomical Twilight 4:33 AM MDT 9:10 PM MDT
Moon 5:34 AM MDT (9/4) 6:44 PM MDT (9/4)
Length of Visible Light 14h 07m
Length of Day
13h 06m
Waning Crescent, 1% of the Moon is Illuminated
Sep 4
Waning Crescent
Sep 5
New
Sep 12
First Quarter
Sep 19
Full
Sep 26
Last Quarter

Hourly Weather History & Observations

Time (MDT) Temp. Heat Index Dew Point Humidity Pressure Visibility Wind Dir Wind Speed Gust Speed Precip Events Conditions
12:56 AM 66.9 °F - 60.1 °F 79% 29.96 in - East 8.1 mph - N/A   Unknown
1:56 AM 64.0 °F - 60.1 °F 87% 29.95 in - ENE 9.2 mph - N/A   Unknown
2:56 AM 63.0 °F - 59.0 °F 87% 29.96 in - ENE 5.8 mph - N/A   Unknown
3:56 AM 64.0 °F - 60.1 °F 87% 29.96 in - East 5.8 mph - N/A   Unknown
4:56 AM 63.0 °F - 60.1 °F 90% 29.98 in - Calm Calm - N/A   Unknown
5:56 AM 60.1 °F - 57.9 °F 93% 29.99 in - NE 8.1 mph - N/A   Unknown
6:56 AM 63.0 °F - 60.1 °F 90% 30.01 in - NE 4.6 mph - N/A   Unknown
7:56 AM 64.9 °F - 61.0 °F 87% 30.03 in - ENE 5.8 mph - N/A   Unknown
8:56 AM 69.1 °F - 61.0 °F 75% 30.02 in - East 13.8 mph - N/A   Unknown
9:56 AM 73.0 °F - 61.0 °F 66% 30.03 in - ENE 9.2 mph - N/A   Unknown
10:56 AM 78.1 °F - 61.0 °F 56% 30.02 in - ESE 6.9 mph - N/A   Unknown
11:56 AM 82.9 °F 83.2 °F 60.1 °F 46% 30.00 in - East 13.8 mph - N/A   Unknown
12:56 PM 86.0 °F 85.4 °F 59.0 °F 40% 29.99 in - East 13.8 mph - N/A   Unknown
1:56 PM 89.1 °F 88.2 °F 59.0 °F 36% 29.97 in - ESE 11.5 mph 18.4 mph N/A   Unknown
2:56 PM 90.0 °F 89.1 °F 59.0 °F 35% 29.96 in - SE 12.7 mph 19.6 mph N/A   Unknown
3:56 PM 90.0 °F 89.7 °F 60.1 °F 37% 29.96 in - East 13.8 mph 18.4 mph N/A   Unknown
4:56 PM 89.1 °F 88.8 °F 60.1 °F 38% 29.96 in - ESE 10.4 mph 20.7 mph N/A   Unknown
5:56 PM 87.1 °F 87.0 °F 61.0 °F 41% 29.95 in - ESE 15.0 mph - N/A   Unknown
6:56 PM 84.0 °F 84.4 °F 61.0 °F 46% 29.96 in - ESE 15.0 mph - N/A   Unknown
7:56 PM 80.1 °F 81.2 °F 62.1 °F 54% 29.99 in - East 11.5 mph - N/A   Unknown
8:56 PM 77.0 °F - 63.0 °F 62% 30.00 in - East 11.5 mph - N/A   Unknown
9:56 PM 75.0 °F - 63.0 °F 66% 30.01 in - East 10.4 mph - N/A   Unknown
10:56 PM 73.0 °F - 63.0 °F 71% 29.99 in - East 9.2 mph - N/A   Unknown
11:56 PM 72.0 °F - 62.1 °F 71% 29.98 in - East 10.4 mph - N/A   Unknown